Hourly Data Report for October 25, 2016

All times are specified in Local Standard Time (LST). Add 1 hour to adjust for Daylight Saving Time where and when it is observed.

POND INLET A
NUNAVUT

72°41'22.000" N
77°58'08.000" W
61.60 m
2403206
71095
YIO

Download Data

Hourly Data (October 2016)
Hourly Data Report for October 25, 2016
Temp Definition
°C
Dew Point Temp Definition
°C
Rel Hum Definition
%
Wind Dir Definition
10's deg

Wind Spd Definition
km/h
Visibility Definition
km
Stn Press Definition
kPa
Hmdx Definition


Wind Chill Definition


Weather Definition


TIME
00:00 Legend Double Dagger -11.5 -12.6 92 21 15 16.1 101.48   -19 Snow
01:00 Legend Double Dagger -11.3 -12.4 92 19 13 16.1 101.46   -18 Snow
02:00 Legend Double Dagger -12.2 -13.4 91 19 18 16.1 101.42   -20 Snow
03:00 Legend Double Dagger -12.5 -13.7 91 20 17 16.1 101.38   -20 Snow
04:00 Legend Double Dagger -11.1 -12.3 91 24 13 16.1 101.36   -18 LegendNANA
05:00 Legend Double Dagger -11.3 -12.4 92 24 8 16.1 101.35   -16 Snow
06:00 Legend Double Dagger -11.4 -12.7 90 20 5 16.1 101.31   -15 Snow
07:00 Legend Double Dagger -11.7 -13.0 90 LegendMM 4 16.1 101.26   -14 LegendNANA
08:00 Legend Double Dagger -11.1 -12.7 88 8 4 16.1 101.20   -14 LegendNANA
09:00 Legend Double Dagger -10.7 -12.6 86   0 16.1 101.15     LegendNANA
10:00 Legend Double Dagger -10.6 -12.2 88 10 5 16.1 101.10   -14 Snow
11:00 Legend Double Dagger -10.0 -11.8 87 22 5 8.1 101.06   -13 Snow
12:00 Legend Double Dagger -10.4 -12.8 83 20 17 16.1 101.02   -18 Snow
13:00 Legend Double Dagger -10.5 -13.2 81 22 17 16.1 100.98   -18 LegendNANA
14:00 Legend Double Dagger -9.5 -12.3 80 23 21 16.1 100.98   -17 LegendNANA
15:00 Legend Double Dagger -9.8 -12.2 83 20 18 16.1 100.95   -17 Snow
16:00 Legend Double Dagger -9.3 -11.4 85 21 22 3.2 100.94   -17 Snow
17:00 Legend Double Dagger -9.3 -11.1 87 20 22 3.6 100.93   -17 Snow
18:00 Legend Double Dagger -9.5 -11.5 85 20 24 6.4 100.87   -18 Snow
19:00 Legend Double Dagger -9.5 -11.4 86 20 22 8.1 100.80   -18 Snow
20:00 Legend Double Dagger -9.3 -11.2 86 19 21 8.1 100.73   -17 Snow
21:00 Legend Double Dagger -8.8 -9.9 92 19 17 2.0 100.67   -16 Snow
22:00 Legend Double Dagger -8.5 -10.7 84 24 17 16.1 100.59   -15 LegendNANA
23:00 Legend Double Dagger -9.3 -12.0 81 25 22 16.1 100.55   -17 LegendNANA

Notes on Data Quality.

Legend

  • E = Estimated
  • M = Missing
  • NA = Not Available
  • ‡ = Partner data that is not subject to review by the National Climate Archives
Date modified: